Wind_Speed
27 30 31 32 33 32 32 32 35 34 32 26 25 25 24 23 21 20 19 19 19 20 20 22 23 23 25 28 29 30 30 28 25
22 26 31 34 34 35 35 34 35 35 28 32 30 25 26 24 23 22 19 20 23 23 23 22 23 24 26 28 30 31 31 31 28
23 24 26 33 36 37 37 36 35 33 31 31 33 29 27 25 26 25 25 29 25 26 27 27 25 25 28 30 32 31 31 32 30
23 24 27 30 37 40 39 40 36 36 34 32 30 34 30 27 27 26 30 30 30 29 28 28 26 28 31 32 32 32 31 32 31
29 27 28 31 35 40 43 41 41 38 34 38 33 35 37 33 29 30 26 29 31 32 31 28 25 32 32 31 32 33 33 33 33
30 28 27 29 33 37 42 43 42 39 42 37 37 37 34 39 32 34 38 36 36 36 33 32 32 36 31 35 32 35 32 33 33
28 28 27 27 32 35 38 43 45 44 44 38 40 40 37 35 35 37 38 38 41 39 38 36 41 40 40 34 34 34 35 35 34
27 27 26 25 29 34 35 38 41 44 45 41 38 38 39 39 40 39 41 42 44 46 44 41 40 44 42 37 36 39 38 38 38
27 25 26 28 29 31 34 34 37 38 41 43 41 37 36 34 39 44 41 46 44 46 47 45 39 47 46 43 41 42 42 42 41
27 26 24 27 32 31 32 35 36 38 39 42 44 45 43 43 41 39 43 41 40 48 46 46 45 35 42 47 47 46 44 44 45
26 26 24 22 25 31 32 36 36 37 38 42 43 45 47 39 39 43 34 39 41 41 46 45 47 51 39 36 48 51 48 45 46
24 25 24 26 29 30 30 32 39 37 37 39 42 46 46 35 38 37 41 42 34 37 43 54 51 47 51 48 39 43 50 48 48
27 30 29 30 29 31 35 30 34 40 38 36 40 43 50 50 41 36 43 39 35 42 39 42 44 50 49 45 53 50 42 50 47
28 27 27 28 31 26 28 28 30 35 42 41 40 39 42 46 51 54 45 47 42 43 48 50 50 49 43 44 45 46 49 42 51
30 28 28 28 32 29 27 31 30 30 35 42 45 45 42 41 43 48 49 55 52 48 39 45 44 42 49 47 47 52 49 43 49
31 31 31 32 32 32 33 32 34 35 33 35 40 46 48 46 45 45 44 48 53 56 59 45 47 49 35 41 41 48 49 54 56
33 34 37 36 36 35 34 35 35 36 40 38 37 39 41 46 46 47 49 47 45 46 48 47 48 53 51 44 34 40 42 40 49
32 34 36 39 39 39 38 37 39 38 37 45 42 41 41 40 41 42 46 47 48 49 48 49 48 48 49 57 54 41 43 41 46
36 35 34 35 38 40 40 41 41 40 43 42 44 48 49 50 47 46 44 44 44 44 45 47 48 48 49 53 58 59 48 43 47
39 38 37 35 36 38 40 41 42 41 40 41 44 45 44 45 45 48 50 48 44 43 43 42 40 41 40 45 50 53 54 51 50
Wind_Direction
265 263 261 256 253 252 252 252 260 260 241 239 242 240 237 230 228 228 232 232 232 227 222 212 213 216 211 206 205 203 200 201 200
277 273 266 262 257 253 249 250 250 257 254 248 243 241 237 229 228 226 226 239 228 228 222 221 221 221 218 209 208 208 206 205 204
280 283 283 269 259 255 251 249 250 251 249 244 241 241 240 233 227 227 224 230 231 228 227 230 228 227 220 213 211 210 210 209 209
277 282 282 278 263 254 252 248 245 247 243 240 238 237 238 234 230 229 231 231 228 230 229 231 234 230 224 212 213 213 211 213 216
270 276 286 285 268 252 249 247 244 244 244 240 233 236 239 237 229 227 218 228 230 233 229 230 230 229 222 215 209 215 216 216 218
278 278 285 282 271 259 248 245 246 245 240 235 234 234 238 236 231 231 236 236 235 235 237 225 229 230 229 222 216 215 219 221 223
285 277 285 281 270 263 256 248 244 242 246 243 232 235 235 234 235 233 240 243 239 237 236 233 233 230 238 232 215 216 222 225 224
283 283 279 277 274 266 258 252 249 244 244 243 233 233 240 243 241 235 234 239 243 240 236 236 235 238 240 239 231 230 225 228 227
278 282 273 272 272 267 257 257 251 247 245 245 245 234 235 237 240 239 240 239 243 241 240 236 241 239 235 238 234 232 232 231 231
277 280 277 270 273 271 262 259 256 250 244 242 242 241 243 246 241 244 239 238 239 243 243 243 231 237 231 232 235 233 232 232 233
276 278 279 279 277 273 272 261 259 258 250 245 245 243 242 235 243 235 237 238 235 238 236 242 236 234 231 223 237 232 232 231 233
271 270 275 278 280 282 279 267 255 256 257 253 248 246 243 238 233 238 233 232 232 239 241 239 238 239 242 231 228 230 232 230 231
272 269 271 275 280 278 273 273 259 253 254 255 256 255 257 252 240 238 241 235 238 238 237 235 240 240 239 245 241 234 233 229 231
272 269 267 269 273 282 269 271 266 259 253 255 255 255 256 254 261 259 252 251 239 235 241 240 239 241 239 242 242 244 236 236 232
271 270 268 265 272 274 274 267 269 265 260 256 256 257 257 259 256 255 262 256 255 246 240 238 242 254 249 246 244 242 238 235 242
271 271 271 271 270 272 275 269 260 260 263 261 259 259 259 257 255 255 256 254 258 267 246 265 252 245 234 232 236 237 240 246 238
265 267 271 273 271 269 268 269 266 264 257 259 261 261 261 262 260 257 258 258 257 257 266 262 266 267 249 230 233 240 234 239 238
271 271 272 274 273 272 271 269 271 267 264 257 256 259 262 261 262 260 260 260 258 258 256 258 258 259 269 257 248 246 246 246 238
274 273 275 273 272 275 274 272 269 272 268 259 257 258 260 261 259 260 257 256 257 259 259 257 257 258 260 263 269 271 266 266 264
279 280 279 277 274 272 270 273 272 271 269 267 263 261 260 260 262 260 258 255 253 254 256 255 254 259 257 258 258 261 263 257 258
Height
5799 5800 5800 5801 5801 5803 5804 5806 5807 5807 5808 5809 5811 5814 5815 5817 5819 5821 5822 5824 5825 5826 5827 5828 5829 5832 5833 5835 5838 5840 5843 5845 5848
5793 5793 5794 5794 5795 5796 5797 5799 5800 5801 5803 5805 5806 5809 5811 5813 5816 5818 5819 5819 5821 5823 5823 5826 5826 5828 5831 5833 5835 5837 5840 5843 5845
5787 5787 5787 5787 5788 5789 5790 5791 5793 5795 5796 5798 5800 5804 5805 5808 5810 5813 5815 5814 5817 5818 5820 5822 5824 5825 5827 5828 5830 5834 5837 5840 5842
5781 5780 5779 5779 5780 5781 5783 5783 5785 5787 5789 5791 5794 5797 5799 5802 5805 5808 5809 5809 5811 5813 5815 5817 5819 5820 5821 5822 5826 5829 5833 5836 5839
5772 5772 5771 5770 5770 5772 5774 5776 5778 5780 5782 5784 5786 5789 5792 5796 5799 5800 5801 5804 5806 5808 5810 5813 5816 5814 5816 5817 5821 5824 5828 5832 5834
5766 5765 5763 5761 5762 5763 5764 5766 5769 5772 5773 5776 5779 5781 5784 5787 5792 5794 5795 5798 5801 5802 5805 5809 5810 5808 5810 5813 5817 5820 5823 5826 5830
5758 5757 5756 5754 5753 5754 5755 5757 5760 5763 5765 5768 5770 5772 5776 5779 5783 5787 5789 5793 5794 5796 5798 5800 5801 5803 5805 5808 5811 5814 5817 5820 5824
5751 5750 5749 5748 5747 5747 5747 5748 5751 5754 5757 5759 5762 5765 5768 5771 5775 5778 5782 5784 5785 5787 5789 5793 5793 5796 5799 5801 5804 5807 5811 5814 5817
5743 5741 5741 5742 5741 5740 5739 5740 5743 5745 5748 5752 5754 5757 5761 5762 5766 5770 5772 5775 5776 5777 5780 5783 5786 5787 5790 5794 5797 5800 5803 5807 5810
5737 5735 5734 5733 5734 5734 5733 5733 5735 5737 5740 5742 5744 5748 5751 5754 5756 5759 5763 5766 5768 5769 5771 5773 5776 5777 5779 5783 5787 5791 5794 5798 5801
5730 5729 5728 5727 5726 5726 5726 5726 5727 5729 5731 5733 5735 5738 5741 5743 5747 5750 5754 5756 5757 5760 5762 5764 5766 5770 5771 5773 5776 5781 5784 5788 5792
5722 5723 5721 5720 5720 5719 5718 5718 5719 5720 5722 5724 5725 5727 5730 5733 5736 5738 5741 5744 5744 5747 5750 5753 5755 5759 5762 5763 5764 5768 5774 5777 5781
5716 5715 5714 5713 5712 5711 5711 5711 5710 5711 5713 5715 5716 5718 5718 5719 5721 5724 5726 5728 5732 5733 5737 5739 5743 5746 5750 5752 5755 5758 5762 5766 5769
5707 5706 5706 5705 5705 5704 5703 5703 5703 5703 5704 5706 5706 5707 5707 5709 5711 5710 5714 5717 5720 5722 5725 5728 5731 5734 5737 5740 5743 5747 5750 5753 5757
5699 5698 5698 5697 5697 5697 5695 5696 5696 5696 5697 5696 5696 5696 5699 5700 5701 5703 5703 5704 5706 5709 5711 5714 5718 5722 5726 5730 5733 5736 5740 5743 5747
5692 5690 5689 5689 5688 5687 5687 5686 5686 5688 5688 5687 5687 5687 5688 5690 5692 5693 5694 5696 5698 5698 5700 5703 5706 5712 5715 5715 5720 5725 5729 5732 5737
5683 5682 5681 5679 5678 5678 5677 5677 5677 5677 5677 5679 5678 5677 5679 5679 5681 5682 5683 5685 5687 5689 5690 5694 5697 5697 5700 5704 5708 5711 5716 5719 5724
5675 5673 5672 5671 5669 5668 5667 5667 5667 5667 5667 5668 5668 5669 5668 5669 5670 5672 5672 5673 5675 5678 5680 5683 5685 5689 5690 5690 5693 5698 5702 5704 5708
5666 5665 5663 5661 5660 5659 5658 5658 5657 5657 5656 5656 5658 5658 5658 5658 5661 5660 5661 5662 5663 5665 5667 5669 5672 5674 5678 5681 5680 5684 5689 5692 5695
5655 5655 5653 5652 5651 5649 5648 5647 5647 5646 5645 5645 5644 5646 5647 5647 5647 5648 5648 5649 5651 5653 5655 5657 5659 5661 5663 5667 5669 5672 5674 5679 5684